Accueil
METAR-TAF:

METAR-TAF

Aéroports :

Aéroport international de Tirana

Tirana, Albanie

latitude: 41-20N, longitude: 019-47E, altitude: 89 m

Observation

Le bulletin a été fait il y a 11 minutes, à 02:50 UTC
Vent 6 kt de sud-est
Température 25°C
Humidité 50%
Pression 1010 hPa
Visibilité 10 km ou plus
pas de nuages en-dessous de 1500 mètres et pas de cumulonimbus.

METAR: LATI 020250Z 14006KT CAVOK 25/14 Q1010 NOSIG

Heure: 05:01 (03:01 UTC)

Prévision

Le bulletin a été fait il y a 4 heures et 1 minutes, à 23:00 UTC
Prévision valable du 02 à 00 UTC au 02 à 24 UTC
Vent 5 kt de direction variable
Visibilité 10 km ou plus
pas de nuages en-dessous de 1500 mètres et pas de cumulonimbus.

TAF: LATI 012300Z 0200/0224 VRB05KT CAVOK TX37/0212Z TN23/0203Z

Observations et prévisions météorologiques de plus de 4000 aéroports (messages METAR et TAF).

Les stations disponibles sont représentées par des disques jaunes et rouges sur la carte.

Passer la souris dessus pour voir le nom de la station.

Cliquer dessus pour voir les observations et prévisions météorologiques.

Pour changer de carte: cliquez sur les boutons verts avec une croix noire pour zoomer, sur le bouton vert avec un tiret pour effectuer un zoom arrière, ou sur les flèches vertes pour les cartes adjacentes.


METAR-TAF: